Regional Weather Roundup
Issued by NWS

Home | Current Version | Previous Version | Graphics & Text | Print | Product List | Glossary On
Versions: 1 2 3 4 5 6 7 8 9 10 11 12 13 14 15 16 17 18 19 20 21 22 23 24 25 26 27 28 29 30 31 32 33 34 35 36 37 38 39 40 41 42 43 44 45 46 47 48 49 50
000
ASUS43 KMPX 021710
RWRMN
WEATHER ROUNDUP FOR MINNESOTA
NATIONAL WEATHER SERVICE TWIN CITIES/CHANHASSEN MN
1200 PM CDT WED SEP 02 2015


NOTE: "FAIR" INDICATES FEW OR NO CLOUDS BELOW 12,000 FEET WITH NO
SIGNIFICANT WEATHER AND/OR OBSTRUCTIONS TO VISIBILITY. N/A MEANS
CURRENT SKY AND/OR WEATHER CONDITIONS ARE NOT AVAILABLE.

MNZ060>063-068>070-021800-
   Twin Cities Metro

CITY           SKY/WX    TMP DP  RH WIND       PRES   REMARKS
TWIN CITIES    CLOUDY    75  67  76 SE10      29.91S
ST PAUL        CLOUDY    74  68  81 SE8       29.91F
CRYSTAL        CLOUDY    75  66  73 E8        29.90F
BLAINE         CLOUDY    73  70  88 SE9       29.92S
LAKEVILLE      PTSUNNY   77  70  78 SE5       29.91S
EDEN PRAIRIE   CLOUDY    76  68  76 E8        29.89F
SOUTH ST PAUL  MOSUNNY   76  67  72 SE10      29.91F
LAKE ELMO      CLOUDY    70  68  94 E5        29.94S
$$
MNZ001>005-007-008-013>017-022>024-027-028-021800-
   Northwest Minnesota

CITY           SKY/WX    TMP DP  RH WIND       PRES   REMARKS
BEMIDJI        SUNNY     82  65  56 E14G20    29.91F
HALLOCK        SUNNY     82  70  65 S13       29.80F
ROSEAU         SUNNY     82  72  69 S10G16    29.86S
WARROAD        SUNNY     79  72  78 E7        29.88S
THIEF RVR FALL SUNNY     81  66  61 S10       29.86S
CROOKSTON      SUNNY     81  64  57 S8        29.85S
FOSSTON        SUNNY     84  63  48 SE12G17   29.88S
DETROIT LAKES  SUNNY     79  64  61 SE13      29.89R
MOORHEAD       SUNNY     82  66  57 SE13      29.83S
PARK RAPIDS    SUNNY     83  63  50 SE14      29.91S
MAHNOMEN       FAIR      81  62  52 SE9G17    29.87S
$$
MNZ006-009>011-018-025>026-021800-
   North Central Minnesota

CITY           SKY/WX    TMP DP  RH WIND       PRES   REMARKS
BAUDETTE       MOSUNNY   81  69  67 SE10      29.90S
FLAG ISLAND    SUNNY     73  66  78 S5        29.87F
INTL FALLS     CLOUDY    77  67  71 SE14      29.94F
WASKISH          N/A     81  72  74 SE8       29.91S
BIG FORK       MOSUNNY   73  64  73 S9G16     29.96F
LONGVILLE      MOSUNNY   81  64  57 SE8       29.95R
GRAND RAPIDS     N/A     73  63  68 SE8G20    29.97F
CRANE LAKE     PTSUNNY   68  64  88 S5        29.99F
ORR            PTSUNNY   72  63  73 S6        29.95F
COOK           CLOUDY    72  63  73 S7        29.98F
WALKER         FAIR      79  64  60 SE7G16    29.93R
$$
MNZ012-019>021-037-021800-
   Northeast Minnesota

CITY           SKY/WX    TMP DP  RH WIND       PRES   REMARKS
DULUTH         CLOUDY    68  64  87 NE5       29.99F
ELY            CLOUDY    66  63  88 SE5       30.00F
HIBBING        CLOUDY    70  64  81 VRB3      29.97F
EVELETH        CLOUDY    64  61  88 S3        29.98F
DULUTH HARBOR  CLOUDY    63  61  94 SE8       29.99S FOG
TWO HARBORS    DRIZZLE   72  66  83 W3        29.96F
SILVER BAY     LGT RAIN  66  64  94 E3        29.95F
GRAND MARAIS     N/A     61  54  77 NE5       30.00F
G MARAIS ARPRT CLOUDY    61  54  77 CALM      30.06F
$$
MNZ029>031-032-039>041-046>048-054>057-064-021800-
   West Central Minnesota

CITY           SKY/WX    TMP DP  RH WIND       PRES   REMARKS
FERGUS FALLS   SUNNY     81  66  61 SE9       29.83F
WHEATON        SUNNY     79  68  69 SE12      29.84F
MORRIS         SUNNY     81  70  69 SE10      29.84S
ALEXANDRIA     SUNNY     78  68  71 E12       29.90R
ELBOW LAKE     FAIR      79  69  73 SE10      29.86R
WADENA         SUNNY     79  64  61 SE10      29.90S
GLENWOOD       SUNNY     81  70  69 E10       29.89S
APPLETON       SUNNY     81  70  69 E8        29.83F
BENSON         SUNNY     81  68  65 S7        29.85S
ORTONVILLE     SUNNY     79  70  73 SE6       29.83S
MADISON        SUNNY     81  70  69 E6        29.83F
WILLMAR        PTSUNNY   81  72  74 SE9       29.88S
$$
MNZ033>034-036-042>043-049>051-058-059-021800-
   Central Minnesota

CITY           SKY/WX    TMP DP  RH WIND       PRES   REMARKS
ST CLOUD       PTSUNNY   75  69  81 SE7       29.91S
SAUK CENTRE    FAIR      76  68  75 E10       29.90S
PAYNESVILLE    CLOUDY    75  68  78 E9        29.90S
AITKIN         MOSUNNY   81  66  61 E7        29.95R
PINE RIVER     SUNNY     79  66  65 E13       29.97R
BRAINERD       PTSUNNY   77  65  66 E8        29.93R
STAPLES        SUNNY     79  63  57 SE12      29.91S
LONG PRAIRIE   PTSUNNY   75  66  73 E10       29.91S
LITTLE FALLS   CLOUDY    77  64  65 SE7       29.91S
LITCHFIELD     MOSUNNY   79  73  83 E5        29.90S
BUFFALO        CLOUDY    74  68  80 E6        29.91F
MAPLE LAKE     CLOUDY    76  71  84 E5        29.92R
$$
MNZ037-044-045-052-053-021800-
   East Central Minnesota

CITY           SKY/WX    TMP DP  RH WIND       PRES   REMARKS
PRINCETON      CLOUDY    77  70  78 E7        29.92S
MORA           PTSUNNY   72  64  78 E10       29.96S
CAMBRIDGE      CLOUDY    73  63  68 E5        29.92S
RUSH CITY      CLOUDY    74  67  80 E6        29.95S
MOOSE LAKE     CLOUDY    70  63  78 E8        29.99R
HINCKLEY       CLOUDY    72  66  83 E10G17    29.97R
CLOQUET        CLOUDY    72  64  78 NE5       30.00F
MCGREGOR       MOSUNNY   77  64  65 E12       29.98S
$$
MNZ071>073-080-081-089-090-097-098-021800-
   Southwest Minnesota

CITY           SKY/WX    TMP DP  RH WIND       PRES   REMARKS
MONTEVIDEO     SUNNY     84  72  65 SE7       29.86S
GRANITE FALLS  SUNNY     79  71  77 S6        29.86S
CANBY          SUNNY     82  71  69 SE7       29.85S
MARSHALL       SUNNY     82  70  65 SW9       29.86S
REDWOOD FALLS  SUNNY     81  71  71 S8        29.86S
OLIVIA         MOSUNNY   75  68  78 SE5       29.86S
PIPESTONE      SUNNY     79  70  73 S12       29.87S
WINDOM         SUNNY     81  70  69 S9G16     29.88S
WORTHINGTON    SUNNY     79  70  73 S15       29.88F
JACKSON        SUNNY     81  70  69 S16       29.90F
TRACY          SUNNY     82  73  75 S9        29.86S
SLAYTON        SUNNY     80  72  75 S8        29.89S
$$
MNZ065>067-074>077-082>085-091>093-021800-
   South Central Minnesota

CITY           SKY/WX    TMP DP  RH WIND       PRES   REMARKS
MANKATO        MOSUNNY   81  70  69 S10       29.88F
NEW ULM        SUNNY     81  72  74 S9        29.87S
ST JAMES       SUNNY     81  72  74 S10       29.88S
FAIRMONT       SUNNY     81  66  61 S16G23    29.88F
GLENCOE        CLOUDY    80  73  78 S3        29.88F
FARIBAULT      MOSUNNY   81  70  69 S7        29.91F
OWATONNA       SUNNY     81  68  65 S12G20    29.91F
WASECA         SUNNY     79  68  69 S13G21    29.91F
ALBERT LEA     MOSUNNY   81  68  65 S9G20     29.92S
$$
MNZ078>079-086>088-094>096-021800-
   Southeast Minnesota

CITY           SKY/WX    TMP DP  RH WIND       PRES   REMARKS
ROCHESTER      SUNNY     78  68  71 S16G23    29.95F
RED WING       PTSUNNY   77  70  78 E8        29.91F
STANTON        CLOUDY    80  67  65 S9        29.90F
DODGE CENTER   SUNNY     79  68  69 S12       29.94F
WINONA         PTSUNNY   82  64  54 SE7       29.94F
AUSTIN         SUNNY     81  70  69 S15       29.93F
PRESTON        CLOUDY    78  66  67 SW10      29.98S
$$
ABBREVIATIONS USED IN REMARKS
   TC - TEMPERATURES IN CELSIUS
  WCI - WIND CHILL INDEX
   HX - HEAT INDEX
  VSB - VISIBILITY
$$



USA.gov is the U.S. government's official web portal to all federal, state and local government web resources and services.